SCP
0 0 0 0 -0 -0 0 0 0 -0 0 -0 0 -0 -0 -0 0 0 0 0 -0 -0 -0 -0 -0 -0 -0 0 0 0 -0 -0 -0 0 0 0 -0 -0 0 0 -0 0 0
0 0 0 -0 -0 0 0 0 0 0 -0 -0 -0 -0 0 -0 0 0 0 0 -0 -0 -0 0 -0 -0 -0 0 0 -0 0 -0 -0 -0 -0 -0 -0 0 0 -0 -0 -0 0
0 0 -0 -0 0 0 0 0 0 0 -0 -0 -0 0 0 0 0 -0 -0 0 -0 -0 0 0 -0 -0 0 0 0 0 0 0 -0 -0 0 -0 -0 -0 -0 -0 -0 -0 -0
0 -0 0 -0 0 0 0 0 0 0 -0 -0 -0 0 0 0 0 0 -0 0 -0 -0 0 0 -0 0 0 0 0 0 0 0 0 0 0 -0 -0 -0 -0 -0 -0 -0 -0
0 0 -0 0 -0 -0 0 0 0 0 -0 -0 -0 0 0 0 0 0 0 0 0 0 -0 0 0 0 0 0 0 0 0 -0 -0 -0 0 -0 -0 0 -0 -0 -0 0 -0
-0 -0 0 0 -0 0 -0 0 0 0 0 -0 0 0 0 0 0 0 0 0 0 0 -0 -0 0 0 0 0 -0 -0 -0 -0 -0 -0 0 -0 -0 -0 -0 -0 -0 -0 -0
0 0 0 0 -0 0 0 0 -0 -0 -0 -0 0 0 0 0 0 -0 0 0 -0 0 -0 -0 -0 -0 0 0 -0 -0 -0 -0 0 0 0 -0 -0 -0 -0 -0 -0 -0 -0
-0 0 0 0 0 0 0 0 -0 -0 -0 0 0 0 0 0 0 -0 -0 -0 -0 -0 -0 -0 -0 -0 -0 0 -0 -0 -0 -0 -0 0 -0 -0 -0 -0 -0 -0 -0 -0 -0
0 0 0 0 0 0 0 0 0 -0 0 0 0 0 0 -0 0 0 -0 -0 -0 -0 -0 -0 -0 -0 -0 0 -0 -0 0 0 -0 -0 -0 -0 -0 -0 -0 -0 -0 -0 -0
0 0 0 0 -0 0 0 0 -0 -0 0 -0 0 0 0 0 -0 -0 -0 -0 -0 -0 -0 -0 -0 -0 0 0 0 -0 0 0 -0 0 -0 -0 -0 -0 -0 -0 -0 -0 -0
0 0 0 0 0 0 0 -0 -0 -0 -0 0 0 -0 -0 -0 -0 -0 -0 -0 -0 -0 -0 -0 -0 -0 -0 -0 -0 -0 -0 0 0 -0 -0 -0 -0 -0 -0 -0 -0 -0 -0
0 0 -0 0 0 0 -0 -0 0 -0 -0 -0 -0 -0 0 -0 -0 -0 -0 -0 -0 -0 -0 -0 -0 -0 -0 -0 -0 -0 -0 0 0 -0 -0 -0 -0 -0 -0 -0 -0 0 0
0 0 0 0 0 0 0 -0 -0 0 0 0 0 -0 -0 -0 -0 0 -0 -0 -0 -0 -0 -0 -0 -0 -0 -0 -0 -0 -0 -0 -0 -0 -0 -0 -0 -0 -0 0 0 0 0
0 0 0 -0 -0 0 0 0 -0 -0 -0 0 -0 -0 0 0 -0 -0 -0 -0 -0 -0 0 0 -0 -0 -0 -0 -0 -0 -0 -0 -0 -0 -0 -0 -0 -0 -0 -0 0 0 0
0 0 0 -0 0 0 0 0 0 0 0 0 -0 -0 0 -0 -0 -0 -0 -0 -0 0 0 -0 -0 0 0 -0 -0 0 0 -0 -0 -0 -0 -0 -0 -0 -0 -0 0 -0 0
-0 -0 -0 0 0 0 0 0 0 0 -0 -0 0 0 -0 0 -0 0 0 -0 0 -0 0 -0 -0 -0 0 0 0 0 0 -0 0 -0 -0 -0 -0 0 0 0 -0 0 -0
-0 -0 -0 -0 -0 0 -0 -0 -0 -0 -0 -0 0 -0 0 -0 -0 0 0 -0 0 0 0 -0 -0 -0 -0 -0 -0 0 -0 -0 0 0 0 0 -0 -0 -0 0 0 0 0
-0 -0 -0 -0 -0 -0 0 -0 -0 -0 -0 -0 0 0 -0 -0 0 0 0 0 0 0 -0 0 -0 0 0 0 0 0 -0 -0 0 -0 -0 0 0 0 -0 -0 -0 -0 0
-0 -0 -0 -0 -0 -0 0 -0 -0 0 -0 -0 0 0 0 0 0 0 0 0 0 0 0 0 -0 0 0 -0 -0 -0 0 -0 -0 0 0 0 0 0 0 -0 -0 -0 -0
-0 -0 -0 -0 -0 -0 -0 0 0 0 0 0 0 0 0 0 0 0 0 0 0 0 -0 0 0 -0 -0 0 0 0 0 0 0 0 0 0 0 0 -0 -0 -0 0 -0
-0 -0 -0 -0 -0 -0 -0 -0 0 -0 0 0 -0 0 0 0 0 0 0 -0 0 -0 -0 0 -0 0 0 -0 0 0 -0 0 -0 0 0 0 0 -0 -0 -0 0 0 0
-0 -0 -0 -0 -0 -0 -0 -0 0 -0 0 0 0 0 0 0 0 -0 -0 -0 -0 -0 -0 -0 0 -0 -0 -0 0 0 -0 -0 -0 0 -0 -0 -0 -0 0 -0 -0 0 -0
-0 -0 -0 -0 -0 -0 0 0 -0 0 -0 -0 0 0 0 0 0 0 0 -0 0 0 -0 -0 0 -0 -0 0 -0 -0 -0 -0 0 -0 -0 -0 -0 -0 0 -0 0 0 -0
-0 -0 -0 -0 -0 -0 0 0 -0 -0 -0 0 0 0 0 0 0 0 0 0 0 -0 0 0 0 0 0 0 0 -0 -0 0 0 0 -0 0 0 0 -0 0 -0 0 0
-0 -0 -0 -0 -0 0 -0 -0 -0 -0 0 -0 -0 -0 0 0 -0 0 0 0 0 0 0 0 0 0 0 0 -0 0 0 0 0 0 0 0 0 -0 0 0 0 0 0
-0 -0 -0 -1 -1 -0 -0 -0 -0 -0 -0 -0 -0 0 0 -0 -0 -0 0 0 0 -0 0 0 0 0 0 0 0 0 0 0 0 0 0 0 0 0 0 0 0 0 0
Wind_Speed_500mb
43 42 44 42 40 41 43 45 41 38 37 35 35 33 29 28 26 25 21 21 20 16 16 21 16 10 13 26 27 31 33 31 33 34 35 33 34 35 43 42 35 30 31
43 33 41 43 43 42 43 40 37 36 35 34 33 28 24 22 22 22 19 20 20 16 18 22 23 26 33 37 31 32 33 33 34 32 32 33 33 34 46 31 32 34 33
38 36 41 43 43 44 42 40 38 34 34 30 28 22 21 21 22 19 16 17 19 16 19 25 32 37 38 35 30 33 33 34 29 33 42 30 30 29 33 29 29 32 30
40 36 34 41 44 44 40 38 35 33 30 26 24 17 18 19 19 17 14 13 17 17 21 26 30 38 36 32 32 31 31 33 29 28 24 27 30 30 28 29 29 28 28
37 35 35 41 42 42 37 37 35 30 26 21 20 14 13 14 14 15 15 15 17 19 22 24 25 30 33 29 29 30 31 37 28 31 30 37 28 29 30 28 27 30 28
33 36 37 41 41 40 36 34 33 28 24 17 14 10 8 12 12 13 15 16 17 18 19 23 24 24 26 26 26 26 29 37 29 16 27 35 26 28 28 28 20 24 23
32 32 37 39 39 37 34 31 28 26 22 18 12 7 7 10 10 12 14 16 16 17 19 20 20 23 21 21 20 18 20 27 22 20 7 26 22 26 24 22 22 21 23
41 30 34 37 35 33 32 29 25 22 19 16 13 9 7 8 9 9 12 14 16 17 21 20 19 19 20 19 17 16 14 24 18 18 7 16 20 24 23 23 22 21 21
34 36 30 29 32 31 26 22 19 18 16 15 13 11 10 9 7 8 12 13 14 16 17 18 18 17 17 17 16 18 14 28 29 20 14 12 19 22 21 19 19 19 19
35 32 31 29 27 24 23 22 19 16 16 14 15 14 12 6 3 10 10 10 13 11 14 16 14 15 15 15 14 18 38 34 25 26 9 6 16 19 18 17 17 16 17
28 34 35 32 24 28 21 20 19 17 15 16 14 15 11 8 6 8 9 10 12 11 12 15 15 14 12 13 17 26 29 17 20 17 9 10 17 18 19 17 15 14 14
38 36 39 33 25 24 21 13 13 10 13 13 11 16 14 12 13 13 11 13 13 12 11 14 17 25 19 13 20 25 22 16 15 12 6 11 17 19 20 16 15 13 13
35 36 29 27 31 22 21 14 16 14 16 18 19 17 13 11 9 17 15 12 12 14 9 9 16 11 7 10 8 14 14 14 13 17 1 11 18 19 18 17 13 11 12
38 36 30 31 23 23 25 22 17 20 8 18 17 18 18 13 10 11 10 15 17 17 26 18 13 8 12 14 12 12 9 8 13 6 5 11 17 18 15 4 10 9 10
40 37 35 31 32 28 29 27 22 19 20 17 15 19 19 19 15 12 14 22 20 21 18 15 17 13 13 11 12 12 8 8 5 4 8 6 13 18 8 10 7 5 6
41 40 37 35 35 31 33 31 29 20 19 19 17 19 23 20 17 18 21 18 24 19 23 17 16 18 20 16 12 13 10 8 13 9 13 13 10 13 12 14 16 19 9
41 41 40 39 36 36 30 22 19 19 19 19 17 15 22 22 16 18 11 19 16 20 17 23 24 19 15 12 21 20 10 13 13 14 12 11 12 13 14 16 14 22 25
42 43 41 37 38 37 33 26 21 19 18 17 19 18 20 20 15 12 14 17 23 20 22 18 12 12 19 13 14 13 13 5 11 8 19 18 21 15 12 17 20 18 18
45 44 44 42 38 37 39 25 24 21 22 17 20 21 21 19 15 9 11 19 24 22 22 20 13 12 10 11 10 9 14 12 13 16 16 14 24 22 23 10 12 16 22
46 45 44 43 40 40 32 32 27 27 24 25 20 17 19 22 11 9 7 16 26 24 19 17 15 10 7 18 10 11 13 10 12 11 14 9 19 18 14 18 16 13 8
49 45 46 46 46 45 40 35 31 32 28 27 22 21 22 13 8 6 9 12 25 21 18 19 17 10 17 13 14 16 13 11 6 8 12 16 17 10 13 12 12 12 8
53 50 47 47 48 46 41 34 35 30 33 31 25 20 22 18 10 7 8 12 19 19 23 18 20 18 9 17 12 10 11 10 8 10 8 11 19 20 14 16 12 6 2
56 55 52 51 49 48 42 34 30 28 34 16 16 18 25 21 16 13 13 18 19 24 15 18 18 17 11 15 15 5 4 8 17 8 7 10 14 3 16 19 12 14 7
59 55 54 53 53 48 49 37 38 30 29 27 23 20 25 25 24 20 17 19 20 20 18 15 18 17 14 13 9 9 9 4 14 12 11 11 8 11 19 6 17 16 15
58 58 57 56 56 51 50 49 40 39 31 26 23 21 26 27 28 25 25 24 20 20 22 20 22 19 14 9 10 9 7 7 9 14 8 14 14 7 11 22 19 11 11
59 60 60 58 60 57 53 51 53 42 36 35 27 27 21 24 27 32 30 27 24 21 20 28 21 13 20 15 15 9 10 7 9 9 14 14 11 12 9 14 11 10 19
Wind_Direction_500mb
149 148 142 144 146 140 140 137 134 135 130 127 122 114 108 98 90 89 87 86 77 68 79 89 83 88 116 128 113 96 100 100 98 103 103 100 100 103 101 90 85 110 115
145 145 146 149 148 144 142 144 140 140 128 130 122 117 107 94 91 93 91 79 68 63 84 89 85 97 109 126 112 102 102 100 97 98 96 101 102 104 107 114 129 111 111
138 149 145 150 152 151 146 145 142 139 136 134 125 120 106 89 89 89 85 75 74 68 95 98 90 101 111 111 104 100 101 99 104 106 102 105 107 107 114 121 112 107 108
130 149 146 148 153 155 157 154 150 144 142 140 131 125 104 88 86 81 79 80 85 89 100 104 104 103 114 110 105 104 97 102 97 90 103 101 109 109 110 111 111 108 108
140 144 163 148 149 155 157 158 162 159 155 148 139 136 112 97 90 78 75 81 95 100 106 108 115 114 111 108 108 102 98 98 77 89 138 108 101 108 104 99 104 106 110
137 145 155 154 154 154 158 159 159 160 167 162 155 151 126 106 97 74 83 89 104 111 111 113 119 117 116 113 112 104 97 93 81 100 83 99 114 105 110 119 114 112 115
151 151 156 154 160 160 163 163 163 169 174 170 171 162 138 118 98 83 89 101 111 118 118 121 119 122 120 115 115 113 105 101 110 90 121 103 113 111 110 116 116 117 113
152 152 158 153 157 160 165 166 166 172 179 180 179 161 172 130 115 99 100 102 111 124 126 124 118 117 117 110 106 101 102 120 116 103 95 112 110 111 109 113 112 114 116
154 156 158 158 156 160 166 167 176 185 189 191 193 186 181 178 143 123 122 123 121 124 135 133 126 123 118 111 91 79 69 141 134 138 126 115 122 114 110 112 117 118 121
158 162 161 164 164 168 179 183 186 195 197 198 204 194 196 178 185 134 134 134 132 129 132 138 139 137 134 129 101 86 80 115 125 125 122 189 131 114 116 111 120 125 128
158 171 168 170 177 167 174 197 185 187 191 187 185 192 164 181 216 138 178 172 158 149 141 141 134 120 113 109 97 94 87 110 118 126 162 147 127 122 119 116 120 123 124
177 180 183 180 179 168 201 203 166 193 186 181 198 239 183 192 176 208 182 211 177 170 160 148 131 107 99 130 103 92 100 113 123 137 228 148 136 134 123 119 121 129 128
181 179 179 184 172 166 190 180 158 187 191 191 194 198 199 168 143 177 199 199 186 170 149 157 150 150 160 132 142 97 125 115 119 151 103 146 145 135 123 116 119 130 139
180 183 182 186 192 186 194 172 192 197 187 193 201 190 197 168 180 210 158 189 212 196 160 187 189 121 164 163 149 157 147 143 172 190 180 152 157 160 147 113 122 136 143
186 187 187 189 192 187 190 192 190 195 192 191 201 196 193 196 200 181 211 191 194 190 186 187 188 179 178 172 192 168 188 200 135 159 209 216 172 179 178 221 229 102 145
192 192 192 194 197 192 203 200 177 192 195 193 203 217 204 211 213 219 224 211 188 202 176 195 193 193 190 180 198 199 214 221 223 192 243 247 220 204 211 205 228 224 223
196 195 195 195 200 199 197 200 194 207 202 197 207 213 217 212 217 212 230 213 170 170 189 210 220 211 209 220 216 231 212 207 210 205 227 238 248 250 236 210 206 219 228
197 197 195 197 201 199 198 201 198 212 215 212 219 237 262 245 228 220 216 202 182 182 186 195 196 202 209 198 210 207 212 265 198 223 190 234 241 250 256 229 228 228 236
196 196 197 197 198 208 208 193 201 213 219 223 227 235 260 260 240 229 216 206 184 176 187 194 204 194 149 186 185 210 217 223 209 223 223 220 227 230 247 253 240 259 248
199 199 197 198 194 199 202 197 210 218 220 224 228 232 248 266 246 231 214 195 174 186 189 182 174 213 215 203 182 219 182 201 172 241 208 201 215 187 239 224 242 261 249
199 199 200 197 196 195 197 200 206 219 219 225 219 230 242 240 251 237 228 171 167 189 184 186 201 193 198 166 203 220 194 198 213 224 202 246 183 191 219 250 264 240 232
200 199 198 197 198 196 200 204 214 218 228 213 223 224 232 233 223 233 185 163 188 192 205 199 196 192 196 184 208 176 185 184 213 210 205 192 242 196 198 204 241 161 235
200 200 200 199 202 202 196 208 216 229 248 228 213 234 228 223 227 241 203 166 221 178 214 211 206 213 207 202 219 220 185 214 165 174 194 233 192 227 189 157 167 197 204
203 203 202 203 203 207 203 208 215 221 234 245 233 227 242 225 221 229 210 192 217 186 205 214 198 208 215 187 226 244 266 30 199 206 164 220 232 245 297 195 198 196 186
201 202 201 201 205 204 216 205 220 222 233 254 220 242 240 226 225 219 220 199 206 190 208 198 213 196 223 232 229 241 234 268 280 313 296 190 249 182 228 260 219 192 210
201 200 200 202 207 209 213 220 210 220 226 230 227 212 233 226 226 219 223 211 197 200 213 218 208 213 197 206 234 254 257 271 264 254 261 264 227 195 213 237 247 198 250
Wind_Speed_850mb
43 42 44 42 40 41 43 45 41 38 37 35 35 33 29 28 26 25 21 21 20 16 16 21 16 10 13 26 27 31 33 31 33 34 35 33 34 35 43 42 35 30 31
43 33 41 43 43 42 43 40 37 36 35 34 33 28 24 22 22 22 19 20 20 16 18 22 23 26 33 37 31 32 33 33 34 32 32 33 33 34 46 31 32 34 33
38 36 41 43 43 44 42 40 38 34 34 30 28 22 21 21 22 19 16 17 19 16 19 25 32 37 38 35 30 33 33 34 29 33 42 30 30 29 33 29 29 32 30
40 36 34 41 44 44 40 38 35 33 30 26 24 17 18 19 19 17 14 13 17 17 21 26 30 38 36 32 32 31 31 33 29 28 24 27 30 30 28 29 29 28 28
37 35 35 41 42 42 37 37 35 30 26 21 20 14 13 14 14 15 15 15 17 19 22 24 25 30 33 29 29 30 31 37 28 31 30 37 28 29 30 28 27 30 28
33 36 37 41 41 40 36 34 33 28 24 17 14 10 8 12 12 13 15 16 17 18 19 23 24 24 26 26 26 26 29 37 29 16 27 35 26 28 28 28 20 24 23
32 32 37 39 39 37 34 31 28 26 22 18 12 7 7 10 10 12 14 16 16 17 19 20 20 23 21 21 20 18 20 27 22 20 7 26 22 26 24 22 22 21 23
41 30 34 37 35 33 32 29 25 22 19 16 13 9 7 8 9 9 12 14 16 17 21 20 19 19 20 19 17 16 14 24 18 18 7 16 20 24 23 23 22 21 21
34 36 30 29 32 31 26 22 19 18 16 15 13 11 10 9 7 8 12 13 14 16 17 18 18 17 17 17 16 18 14 28 29 20 14 12 19 22 21 19 19 19 19
35 32 31 29 27 24 23 22 19 16 16 14 15 14 12 6 3 10 10 10 13 11 14 16 14 15 15 15 14 18 38 34 25 26 9 6 16 19 18 17 17 16 17
28 34 35 32 24 28 21 20 19 17 15 16 14 15 11 8 6 8 9 10 12 11 12 15 15 14 12 13 17 26 29 17 20 17 9 10 17 18 19 17 15 14 14
38 36 39 33 25 24 21 13 13 10 13 13 11 16 14 12 13 13 11 13 13 12 11 14 17 25 19 13 20 25 22 16 15 12 6 11 17 19 20 16 15 13 13
35 36 29 27 31 22 21 14 16 14 16 18 19 17 13 11 9 17 15 12 12 14 9 9 16 11 7 10 8 14 14 14 13 17 1 11 18 19 18 17 13 11 12
38 36 30 31 23 23 25 22 17 20 8 18 17 18 18 13 10 11 10 15 17 17 26 18 13 8 12 14 12 12 9 8 13 6 5 11 17 18 15 4 10 9 10
40 37 35 31 32 28 29 27 22 19 20 17 15 19 19 19 15 12 14 22 20 21 18 15 17 13 13 11 12 12 8 8 5 4 8 6 13 18 8 10 7 5 6
41 40 37 35 35 31 33 31 29 20 19 19 17 19 23 20 17 18 21 18 24 19 23 17 16 18 20 16 12 13 10 8 13 9 13 13 10 13 12 14 16 19 9
41 41 40 39 36 36 30 22 19 19 19 19 17 15 22 22 16 18 11 19 16 20 17 23 24 19 15 12 21 20 10 13 13 14 12 11 12 13 14 16 14 22 25
42 43 41 37 38 37 33 26 21 19 18 17 19 18 20 20 15 12 14 17 23 20 22 18 12 12 19 13 14 13 13 5 11 8 19 18 21 15 12 17 20 18 18
45 44 44 42 38 37 39 25 24 21 22 17 20 21 21 19 15 9 11 19 24 22 22 20 13 12 10 11 10 9 14 12 13 16 16 14 24 22 23 10 12 16 22
46 45 44 43 40 40 32 32 27 27 24 25 20 17 19 22 11 9 7 16 26 24 19 17 15 10 7 18 10 11 13 10 12 11 14 9 19 18 14 18 16 13 8
49 45 46 46 46 45 40 35 31 32 28 27 22 21 22 13 8 6 9 12 25 21 18 19 17 10 17 13 14 16 13 11 6 8 12 16 17 10 13 12 12 12 8
53 50 47 47 48 46 41 34 35 30 33 31 25 20 22 18 10 7 8 12 19 19 23 18 20 18 9 17 12 10 11 10 8 10 8 11 19 20 14 16 12 6 2
56 55 52 51 49 48 42 34 30 28 34 16 16 18 25 21 16 13 13 18 19 24 15 18 18 17 11 15 15 5 4 8 17 8 7 10 14 3 16 19 12 14 7
59 55 54 53 53 48 49 37 38 30 29 27 23 20 25 25 24 20 17 19 20 20 18 15 18 17 14 13 9 9 9 4 14 12 11 11 8 11 19 6 17 16 15
58 58 57 56 56 51 50 49 40 39 31 26 23 21 26 27 28 25 25 24 20 20 22 20 22 19 14 9 10 9 7 7 9 14 8 14 14 7 11 22 19 11 11
59 60 60 58 60 57 53 51 53 42 36 35 27 27 21 24 27 32 30 27 24 21 20 28 21 13 20 15 15 9 10 7 9 9 14 14 11 12 9 14 11 10 19
Wind_Direction_850mb
149 148 142 144 146 140 140 137 134 135 130 127 122 114 108 98 90 89 87 86 77 68 79 89 83 88 116 128 113 96 100 100 98 103 103 100 100 103 101 90 85 110 115
145 145 146 149 148 144 142 144 140 140 128 130 122 117 107 94 91 93 91 79 68 63 84 89 85 97 109 126 112 102 102 100 97 98 96 101 102 104 107 114 129 111 111
138 149 145 150 152 151 146 145 142 139 136 134 125 120 106 89 89 89 85 75 74 68 95 98 90 101 111 111 104 100 101 99 104 106 102 105 107 107 114 121 112 107 108
130 149 146 148 153 155 157 154 150 144 142 140 131 125 104 88 86 81 79 80 85 89 100 104 104 103 114 110 105 104 97 102 97 90 103 101 109 109 110 111 111 108 108
140 144 163 148 149 155 157 158 162 159 155 148 139 136 112 97 90 78 75 81 95 100 106 108 115 114 111 108 108 102 98 98 77 89 138 108 101 108 104 99 104 106 110
137 145 155 154 154 154 158 159 159 160 167 162 155 151 126 106 97 74 83 89 104 111 111 113 119 117 116 113 112 104 97 93 81 100 83 99 114 105 110 119 114 112 115
151 151 156 154 160 160 163 163 163 169 174 170 171 162 138 118 98 83 89 101 111 118 118 121 119 122 120 115 115 113 105 101 110 90 121 103 113 111 110 116 116 117 113
152 152 158 153 157 160 165 166 166 172 179 180 179 161 172 130 115 99 100 102 111 124 126 124 118 117 117 110 106 101 102 120 116 103 95 112 110 111 109 113 112 114 116
154 156 158 158 156 160 166 167 176 185 189 191 193 186 181 178 143 123 122 123 121 124 135 133 126 123 118 111 91 79 69 141 134 138 126 115 122 114 110 112 117 118 121
158 162 161 164 164 168 179 183 186 195 197 198 204 194 196 178 185 134 134 134 132 129 132 138 139 137 134 129 101 86 80 115 125 125 122 189 131 114 116 111 120 125 128
158 171 168 170 177 167 174 197 185 187 191 187 185 192 164 181 216 138 178 172 158 149 141 141 134 120 113 109 97 94 87 110 118 126 162 147 127 122 119 116 120 123 124
177 180 183 180 179 168 201 203 166 193 186 181 198 239 183 192 176 208 182 211 177 170 160 148 131 107 99 130 103 92 100 113 123 137 228 148 136 134 123 119 121 129 128
181 179 179 184 172 166 190 180 158 187 191 191 194 198 199 168 143 177 199 199 186 170 149 157 150 150 160 132 142 97 125 115 119 151 103 146 145 135 123 116 119 130 139
180 183 182 186 192 186 194 172 192 197 187 193 201 190 197 168 180 210 158 189 212 196 160 187 189 121 164 163 149 157 147 143 172 190 180 152 157 160 147 113 122 136 143
186 187 187 189 192 187 190 192 190 195 192 191 201 196 193 196 200 181 211 191 194 190 186 187 188 179 178 172 192 168 188 200 135 159 209 216 172 179 178 221 229 102 145
192 192 192 194 197 192 203 200 177 192 195 193 203 217 204 211 213 219 224 211 188 202 176 195 193 193 190 180 198 199 214 221 223 192 243 247 220 204 211 205 228 224 223
196 195 195 195 200 199 197 200 194 207 202 197 207 213 217 212 217 212 230 213 170 170 189 210 220 211 209 220 216 231 212 207 210 205 227 238 248 250 236 210 206 219 228
197 197 195 197 201 199 198 201 198 212 215 212 219 237 262 245 228 220 216 202 182 182 186 195 196 202 209 198 210 207 212 265 198 223 190 234 241 250 256 229 228 228 236
196 196 197 197 198 208 208 193 201 213 219 223 227 235 260 260 240 229 216 206 184 176 187 194 204 194 149 186 185 210 217 223 209 223 223 220 227 230 247 253 240 259 248
199 199 197 198 194 199 202 197 210 218 220 224 228 232 248 266 246 231 214 195 174 186 189 182 174 213 215 203 182 219 182 201 172 241 208 201 215 187 239 224 242 261 249
199 199 200 197 196 195 197 200 206 219 219 225 219 230 242 240 251 237 228 171 167 189 184 186 201 193 198 166 203 220 194 198 213 224 202 246 183 191 219 250 264 240 232
200 199 198 197 198 196 200 204 214 218 228 213 223 224 232 233 223 233 185 163 188 192 205 199 196 192 196 184 208 176 185 184 213 210 205 192 242 196 198 204 241 161 235
200 200 200 199 202 202 196 208 216 229 248 228 213 234 228 223 227 241 203 166 221 178 214 211 206 213 207 202 219 220 185 214 165 174 194 233 192 227 189 157 167 197 204
203 203 202 203 203 207 203 208 215 221 234 245 233 227 242 225 221 229 210 192 217 186 205 214 198 208 215 187 226 244 266 30 199 206 164 220 232 245 297 195 198 196 186
201 202 201 201 205 204 216 205 220 222 233 254 220 242 240 226 225 219 220 199 206 190 208 198 213 196 223 232 229 241 234 268 280 313 296 190 249 182 228 260 219 192 210
201 200 200 202 207 209 213 220 210 220 226 230 227 212 233 226 226 219 223 211 197 200 213 218 208 213 197 206 234 254 257 271 264 254 261 264 227 195 213 237 247 198 250